Flag for Norway Weather past 2 weeks in Horten, Norway

Now
41 °F

Light rain. Fog.


Feels Like: 25 °F
Forecast: 35 / 45 °F
Wind: 68 mph from South

Location: Oseberg

Current Time: Mar 28, 2015 at 8:19:37 PM

Latest Report: Mar 28, 2015 at 7:50 PM


Visibility: 2 mi

Pressure: 28.91 "Hg

Humidity: 93%

Dew point: 39 °F

Location of HortenLocation

Historic Weather in Horten — Graph

°F

Horten temperature yesterday

Maximum temperature yesterday: 46 °F (at 1:50 PM)
Minimum temperature yesterday: 39 °F (at 12:50 AM)
Average temperature yesterday: 43 °F

Past Weeks' High & Low Weather Summary

 TemperatureHumidityPressure
High48 °F (Mar 15, 2:50 PM)100% (Mar 19, 3:50 PM)30.77 "Hg (Mar 19, 3:50 PM)
Low37 °F (Mar 26, 8:50 AM)49% (Mar 15, 5:20 PM)28.97 "Hg (Mar 28, 6:50 PM)
Average43 °F76%30.14 "Hg
* Reported Mar 13 6:20 PM — Mar 28 6:50 PM, Horten, Weather by CustomWeather, © 2015

Note: Actual official high and low records may vary slightly from our data, if they occured in-between our weather recording intervals... More about our weather records

Advertising

Horten weather history for previous 24 hours

 ConditionsComfort  
Time TempWeatherWind HumidityBarometerVisibility
6:50 PM
Sat, Mar 28
41 °FLight rain. Fog.69 mph93%28.97 "Hg1 mi
5:50 PM39 °FLight rain. Fog.74 mph93%29.00 "Hg1 mi
5:20 PM39 °FLight rain. Fog.71 mph93%29.06 "Hg1 mi
4:50 PM39 °FLight rain. Fog.70 mph93%29.06 "Hg2 mi
4:20 PM41 °FLight rain. Fog.73 mph87%29.09 "Hg2 mi
3:50 PM41 °FLight rain. Partly sunny.73 mph87%29.15 "Hg3 mi
2:50 PM41 °FLight rain. Fog.69 mph87%29.21 "Hg1 mi
2:20 PM41 °FLight rain. Partly sunny.64 mph87%29.24 "Hg2 mi
1:50 PM41 °FSprinkles. Partly sunny.58 mph87%29.30 "Hg3 mi
1:20 PM41 °FLight rain. Partly sunny.59 mph76%29.36 "Hg4 mi
12:50 PM43 °FPartly sunny.51 mph81%29.42 "HgN/A
11:50 AM43 °FPartly sunny.46 mph87%29.47 "HgN/A
11:20 AM45 °FPartly sunny.45 mph76%29.50 "HgN/A
10:50 AM45 °FPartly sunny.45 mph76%29.53 "HgN/A
9:50 AM45 °FPartly sunny.39 mph81%29.59 "HgN/A
9:20 AM45 °FPartly sunny.39 mph81%29.62 "HgN/A
8:50 AM45 °FPartly sunny.37 mph87%29.62 "HgN/A
8:20 AM45 °FScattered clouds.33 mph81%29.65 "HgN/A
7:50 AM45 °FScattered clouds.31 mph87%29.68 "HgN/A
7:20 AM45 °FScattered clouds.28 mph81%29.68 "HgN/A
6:50 AM43 °FPartly sunny.28 mph87%29.71 "HgN/A
6:20 AM43 °FPartly sunny.28 mph87%29.71 "HgN/A
5:50 AM43 °FPassing clouds.26 mph87%29.74 "HgN/A
5:20 AM43 °FPassing clouds.26 mph87%29.74 "HgN/A
4:50 AM43 °FPassing clouds.26 mph87%29.74 "HgN/A
3:50 AM43 °FPartly cloudy.24 mph87%29.80 "HgN/A
2:50 AM43 °FSprinkles. Passing clouds.25 mph76%29.80 "HgN/A
12:50 AM43 °FPassing clouds.29 mph87%29.80 "HgN/A
11:50 PM
Fri, Mar 27
43 °FPartly cloudy.29 mph81%29.83 "HgN/A
10:50 PM43 °FPassing clouds.29 mph76%29.83 "HgN/A
10:20 PM43 °FPassing clouds.28 mph76%29.83 "HgN/A
8:50 PM43 °FPassing clouds.24 mph76%29.83 "HgN/A
Weather by CustomWeather, © 2015

See weather overviewHow to use our weather pages